TimeEDT,TemperatureF,Dew PointF,Humidity,Sea Level PressureIn,VisibilityMPH,Wind Direction,Wind SpeedMPH,Gust SpeedMPH,PrecipitationIn,Events,Conditions,WindDirDegrees,DateUTC
12:52 AM,37.0,30.9,79,29.88,10.0,West,15.0,18.4,N/A,,Overcast,260,2013-03-12 04:52:00
1:52 AM,36.0,30.0,79,29.90,10.0,WSW,13.8,21.9,N/A,,Overcast,250,2013-03-12 05:52:00
2:52 AM,36.0,30.9,82,29.91,10.0,West,9.2,-,0.00,Rain,Light Rain,260,2013-03-12 06:52:00
3:52 AM,35.1,30.0,82,29.92,10.0,West,17.3,-,0.00,,Overcast,270,2013-03-12 07:52:00
4:52 AM,35.1,28.0,76,29.91,10.0,WSW,9.2,-,N/A,,Overcast,250,2013-03-12 08:52:00
5:20 AM,33.8,28.4,81,29.91,10.0,West,8.1,-,N/A,,Overcast,260,2013-03-12 09:20:00
5:52 AM,34.0,28.0,79,29.94,10.0,WSW,8.1,-,N/A,,Overcast,250,2013-03-12 09:52:00
6:23 AM,33.8,28.4,81,29.93,10.0,West,9.2,-,N/A,,Overcast,260,2013-03-12 10:23:00
6:52 AM,34.0,27.0,75,29.95,10.0,West,10.4,-,N/A,,Overcast,260,2013-03-12 10:52:00
7:52 AM,34.0,27.0,75,29.97,10.0,WSW,6.9,-,N/A,,Overcast,240,2013-03-12 11:52:00
8:15 AM,33.8,28.4,81,29.96,10.0,SW,5.8,-,N/A,,Overcast,230,2013-03-12 12:15:00
8:52 AM,34.0,27.0,75,29.99,10.0,WSW,8.1,-,N/A,,Overcast,240,2013-03-12 12:52:00
9:52 AM,34.0,28.0,79,29.99,10.0,SW,9.2,-,N/A,,Overcast,230,2013-03-12 13:52:00
10:52 AM,35.1,27.0,72,30.01,10.0,SW,6.9,-,N/A,,Overcast,220,2013-03-12 14:52:00
11:06 AM,35.6,26.6,70,30.00,10.0,WSW,12.7,-,N/A,,Overcast,240,2013-03-12 15:06:00
11:52 AM,36.0,27.0,70,30.01,10.0,SW,9.2,-,N/A,,Overcast,230,2013-03-12 15:52:00
12:52 PM,36.0,27.0,70,30.03,10.0,West,12.7,-,N/A,,Overcast,260,2013-03-12 16:52:00
1:52 PM,39.0,28.0,65,30.03,10.0,West,10.4,-,N/A,,Overcast,260,2013-03-12 17:52:00
2:52 PM,41.0,27.0,57,30.00,10.0,WSW,9.2,-,N/A,,Mostly Cloudy,250,2013-03-12 18:52:00
3:52 PM,42.1,28.0,58,29.99,10.0,West,11.5,-,N/A,,Mostly Cloudy,280,2013-03-12 19:52:00
4:52 PM,45.0,28.0,52,29.98,10.0,West,11.5,18.4,N/A,,Mostly Cloudy,270,2013-03-12 20:52:00
5:52 PM,46.0,27.0,47,29.98,10.0,West,8.1,18.4,N/A,,Scattered Clouds,260,2013-03-12 21:52:00
6:52 PM,44.1,25.0,47,29.98,10.0,WSW,11.5,18.4,N/A,,Mostly Cloudy,250,2013-03-12 22:52:00
7:52 PM,43.0,26.1,51,30.00,10.0,West,11.5,-,N/A,,Mostly Cloudy,270,2013-03-12 23:52:00
8:52 PM,42.1,25.0,51,30.02,10.0,West,11.5,24.2,N/A,,Overcast,260,2013-03-13 00:52:00
9:52 PM,37.9,26.1,62,30.04,10.0,West,5.8,-,N/A,,Scattered Clouds,260,2013-03-13 01:52:00
10:52 PM,39.0,24.1,55,30.04,10.0,West,8.1,-,N/A,,Overcast,260,2013-03-13 02:52:00
11:17 PM,35.6,33.8,93,30.06,8.0,WNW,18.4,24.2,0.00,Rain-Snow,Light Rain,290,2013-03-13 03:17:00
11:52 PM,34.0,33.1,96,30.07,4.0,West,10.4,-,0.00,Snow,Light Snow,270,2013-03-13 03:52:00